Regional Weather Roundup
Issued by NWS Upton, NY

Current Version | Previous Version | Graphics & Text | Print | Product List | Glossary Off
Versions: 1 2 3 4 5 6 7 8 9 10 11 12 13 14 15 16 17 18 19 20 21 22 23 24 25 26 27 28 29 30 31 32 33 34 35 36 37 38 39 40 41 42 43 44 45 46 47 48 49 50

697
ASUS41 KOKX 111708
RWROKX

REGIONAL WEATHER ROUNDUP
NATIONAL WEATHER SERVICE NEW YORK NY
1200 PM EST MON DEC 11 2017

NOTE: "FAIR" INDICATES FEW OR NO CLOUDS BELOW 12,000 FEET WITH NO
SIGNIFICANT WEATHER AND/OR OBSTRUCTIONS TO VISIBILITY.

NYZ071-072-176-178-NJZ106-104-111800-
NEW YORK CITY METRO AREA

CITY           SKY/WX    TMP DP  RH WIND       PRES   REMARKS
Central Park   SUNNY     39  21  48 VRB5      30.03F
Bronx Bot Gard   N/A     41  21  45 W10       30.01F
Bronx Lehman C   N/A     37  23  56 W6          N/A  WCI  33
LaGuardia APRT MOSUNNY   40  23  50 NW10      30.01F WCI  33
Queens College   N/A     37  23  56 NW7         N/A  WCI  32
Kennedy INTL   MOSUNNY   38  24  57 W9        30.03F WCI  31
Breezy Point     N/A     37 N/A N/A W10G16      N/A  WCI  30
Brooklyn Coll    N/A     37  23  56 W13         N/A  WCI  29
Staten Island    N/A     37  23  56 W12         N/A  WCI  30
Newark/Liberty MOSUNNY   40  23  50 W9        30.02F WCI  34
Teterboro      SUNNY     40  21  46 NW9       30.01F WCI  34
$$

NYZ177-179-078>081-111800-
LONG ISLAND NEW YORK

CITY           SKY/WX    TMP DP  RH WIND       PRES   REMARKS
Jones Beach      N/A     37 N/A N/A NW12        N/A  WCI  30
Wantagh          N/A     39  25  56 W8          N/A  WCI  34
Matinecock PT    N/A     39 N/A N/A W14         N/A  WCI  31
Farmingdale    SUNNY     38  24  57 W8        30.01F WCI  32
MacArthur/ISP  MOSUNNY   40  25  55 NW10      30.00F WCI  33
Shirley        SUNNY     40  25  55 W12       30.01F WCI  33
Mt Sinai Harb    N/A    N/A N/A N/A W7          N/A
Westhampton    SUNNY     40  23  50 NW12      30.02F WCI  33
East Hampton   PTSUNNY   38  26  61 W9G16     29.99F WCI  32
Southold         N/A     39  27  60 W9          N/A  WCI  33
Montauk          N/A     40  25  55 W12G20    30.00F WCI  33
$$

NYZ052-065-067-111800-
HUDSON VALLEY

CITY           SKY/WX    TMP DP  RH WIND       PRES   REMARKS
White Plains   MOSUNNY   36  20  52 W8        29.99F WCI  30
Larchmont Harb   N/A     37 N/A N/A W9G17       N/A  WCI  31
Croton On Huds   N/A     37 N/A N/A W1          N/A
Somers           N/A     36  21  55 W3          N/A
Brewster         N/A     34  21  60 W7          N/A  WCI  28
Newburgh       MOSUNNY   36  23  60 NW14      30.00F WCI  27
Montgomery     PTSUNNY   35  21  56 W8        29.98F WCI  29
Otisville        N/A     34  21  60 NW7         N/A  WCI  28
Warwick          N/A     36  21  55 W6          N/A  WCI  31
Suffern          N/A     36  21  55 W7          N/A  WCI  30
Poughkeepsie   MOSUNNY   36  20  52 W12       29.99F WCI  28
Albany         FLURRIES  33  21  61 W8        29.98F WCI  26
$$

NJZ001-105-106-008-010-013-015-019>022-104-111800-
NEW JERSEY

CITY           SKY/WX    TMP DP  RH WIND       PRES   REMARKS
Newark/Liberty MOSUNNY   40  23  50 W9        30.02F WCI  34
Teterboro      SUNNY     40  21  46 NW9       30.01F WCI  34
Caldwell       SUNNY     39  20  46 VRB5      30.01F
Somerville     SUNNY     40  23  50 VRB6      30.00F
Linden         FAIR      39  21  48 W6        30.02F WCI  35
Perth Amboy      N/A     37 N/A N/A W12         N/A  WCI  30
Sussex         MOSUNNY   36  19  50 NW6       29.99F WCI  31
Andover        NOT AVBL
Trenton        SUNNY     40  22  48 W6        30.02F
Millville      MOSUNNY   42  25  50 NW10      30.06F
Atlantic City  SUNNY     44  22  41 W20G28    30.05F
Wrightstown    SUNNY     40  23  50 W10       30.00F WCI  34
Toms River     MOSUNNY   41  26  55 W7        30.03F
Belmar         SUNNY     39  23  52 W9        30.03F WCI  33
$$

PAZ047>061-062-071-111800-
EASTERN PENNSYLVANIA

CITY           SKY/WX    TMP DP  RH WIND       PRES   REMARKS
Philadelphia   PTSUNNY   41  21  44 W10       30.05F
Allentown      SUNNY     38  21  50 W10       30.01F WCI  31
Scranton       CLOUDY    34  19  54 W10       29.97F WCI  26
$$

CTZ002-004>006-009-010-012-RIZ004-006-007-MAZ004-011-015-111800-
SOUTHERN NEW ENGLAND
 IN CT

CITY           SKY/WX    TMP DP  RH WIND       PRES   REMARKS
Bradley INTL   PTSUNNY   37  22  54 W3        29.98F
Hartford       MOSUNNY   39  22  50 W6        29.99F WCI  35
Danbury        MOSUNNY   37  21  52 VRB5      29.99F WCI  33
Wtrbury/Oxford SUNNY     35  21  56 W8        29.97F WCI  29
Norwalk Harbor   N/A     36 N/A N/A W9          N/A  WCI  29
Bridgeport     SUNNY     40  22  48 W6        30.00F
Meriden        SUNNY     37  20  50 W9        30.00S WCI  30
New Haven      SUNNY     39  22  50 VRB6      30.00F WCI  35
Chester        FAIR      39  21  48 W8        29.97F WCI  34
Groton         SUNNY     40  22  48 W7        29.98F
Wilimantic     SUNNY     38  22  52 VRB6      29.98F WCI  33

 IN RI

CITY           SKY/WX    TMP DP  RH WIND       PRES   REMARKS
Providence     MOSUNNY   38  24  57 W9        29.98F WCI  31
Block Island   PTSUNNY   38  26  62 W14G20    29.99F WCI  30
Westerly       SUNNY     41  22  46 W6        29.98F
 IN MA

CITY           SKY/WX    TMP DP  RH WIND       PRES   REMARKS
Boston         NOT AVBL
Worcester      SUNNY     32  18  56 W14       29.92F WCI  22
Westfield      SUNNY     36  19  50 W13       29.97F WCI  27
Provincetown   PTSUNNY   40  26  57 W13       29.96F WCI  32
Nantucket      LGT RAIN  37  33  85 W12       29.96F FOG     WCI  29
$$

ANZ330-335-338-340-345-350-353-355-111800-
COASTAL MARINE OBSERVATIONS


STATION/POSITION TIME  SKY/WX   TEMP    WIND        PRES    VSBY  WAVE
                                AIR SEA DIR/SP/G                  HT/PER
                 (UTC)          (F)     (DEG/KT/KT) (MB)    (MI)  (FT/S)
NY HARB ENTRANCE 1650            39 52  290/ 16/ 19 1016.5          3/10
20 S FIRE ISLAND 1650            40 53  290/ 17/ 21 1016.7          4/ 4
GREAT SOUTH BAY  1630            38 45  270/ 12/ 16   N/A
HUDSON CANYON    1650            43 56  300/ 17/ 21 1016.4          6/ 5
KINGS POINT      1630            38 44  330/ 11/ 14 1017.8
EXECUTION ROCKS  1630            42     260/ 10/ 16   N/A
WESTERN LI SOUND 1549            39     290/ 12/ 16   N/A           1/ 2
CENTRAL LI SOUND NOT AVBL
ROBBINS REEF     1630            38     270/ 11/ 13 1017.7
$$


>>>>>>>>>>>>>>>>>>>>>>>>>>>> KEY <<<<<<<<<<<<<<<<<<<<<<<<<<<
>                                                          <
>     SKY/WX - Sky Condition/Present Weather               <
>     TMP    - Temperature in Fahrenheit                   <
>     DP     - Dew Point in Fahrenheit                     <
>     RH     - Relative Humidity in Percent                <
>     WIND   - Direction (from) and Speed in MPH           <
>     PRES   - Mean Sea Level Pressure (inches of Hg)      <
>     WCI    - Wind Chill Index                            <
>     VSB    - VISIBILITY IN MILES                         <
>     HX     - HEAT INDEX                                  <
>     TC     - TEMPERATURE IN CELSIUS                      <
>     VRB    - VARIABLE WIND DIRECTION                     <
>                                                          <
>>>>>>>>>>>>>>>>>>>>>>>>>>>> KEY <<<<<<<<<<<<<<<<<<<<<<<<<<<




USA.gov is the U.S. government's official web portal to all federal, state and local government web resources and services.